Home   Weather   Laughlin   Past weeks
Flag for USA

Past Weather in Laughlin, Nevada, USA — Yesterday and Last 2 Weeks

Now
61 °F

Scattered clouds.


Feels Like: 61 °F
Forecast: 69 / 54 °F
Wind: 31 mph from North

Location: Laughlin/Bullhead International Airport

Current Time: Jan 29, 2020 at 10:28:35 am

Latest Report: Jan 29, 2020 at 9:52 am


Visibility: 20 mi

Pressure: 30.00 "Hg

Humidity: 31%

Dew Point: 30 °F

Location of LaughlinLocation

Past Weather in Laughlin — Graph

°F

Laughlin Temperature Yesterday

Maximum temperature yesterday: 72 °F (at 1:49 pm)
Minimum temperature yesterday: 52 °F (at 2:55 am)
Average temperature yesterday: 58 °F

High & Low Weather Summary for the Past Weeks

 TemperatureHumidityPressure
High72 °F (Jan 25, 1:50 pm)87% (Jan 22, 5:15 am)30.35 "Hg (Jan 22, 5:15 am)
Low41 °F (Jan 15, 6:50 am)14% (Jan 27, 2:49 pm)29.92 "Hg (Jan 16, 4:50 pm)
Average57 °F41%30.09 "Hg
* Reported Jan 14 8:52 am — Jan 29 8:50 am, Laughlin. Weather by CustomWeather, © 2020

Note: Actual official high and low records may vary slightly from our data, if they occured in-between our weather recording intervals... More about our weather records

Laughlin Weather History for the Previous 24 Hours

Scroll right to see more
 ConditionsComfort  
Time TempWeatherWind HumidityBarometerVisibility
8:50 am
Wed, Jan 29
57 °FScattered clouds.25 mph36%30.00 "Hg20 mi
7:50 am55 °FScattered clouds.20 mph38%30.00 "Hg20 mi
6:51 am55 °FScattered clouds.15 mph36%29.99 "Hg10 mi
6:15 am55 °FClear.14 mph36%29.98 "Hg10 mi
5:55 am55 °FClear.16 mph36%29.97 "Hg10 mi
5:15 am54 °FClear.6 mph41%29.97 "Hg10 mi
4:55 am54 °FClear.5 mph44%29.97 "Hg10 mi
4:15 am54 °FClear.5 mph44%29.96 "Hg10 mi
3:55 am54 °FClear.5 mph44%29.96 "Hg10 mi
3:35 am55 °FClear.5 mph36%29.96 "Hg10 mi
3:15 am55 °FClear.5 mph36%29.97 "Hg10 mi
2:55 am57 °FClear.12 mph33%29.97 "Hg10 mi
2:35 am57 °FClear.8 mph33%29.98 "Hg10 mi
1:55 am59 °FClear.8 mph31%29.99 "Hg10 mi
1:35 am55 °FClear.9 mph41%29.99 "Hg10 mi
1:15 am55 °FClear.5 mph47%29.99 "Hg10 mi
12:55 am55 °FClear.6 mph47%29.99 "Hg10 mi
12:35 am55 °FClear.6 mph44%29.99 "Hg10 mi
12:15 am55 °FClear.5 mph44%29.99 "Hg10 mi
11:55 pm
Tue, Jan 28
55 °FClear.7 mph47%30.00 "Hg10 mi
11:35 pm57 °FClear.7 mph36%30.00 "Hg10 mi
10:55 pm57 °FClear.5 mph39%30.01 "Hg10 mi
10:35 pm59 °FClear.No wind36%30.01 "Hg10 mi
10:15 pm59 °FClear.No wind34%30.01 "Hg10 mi
9:55 pm59 °FClear.3 mph34%30.01 "Hg10 mi
9:35 pm59 °FClear.5 mph36%30.01 "Hg10 mi
9:15 pm61 °FClear.5 mph29%30.01 "Hg10 mi
8:55 pm59 °FClear.6 mph34%30.01 "Hg10 mi
8:35 pm61 °FClear.No wind34%30.01 "Hg10 mi
8:15 pm63 °FClear.3 mph27%30.02 "Hg10 mi
7:55 pm63 °FClear.3 mph30%30.02 "Hg10 mi
7:35 pm61 °FClear.8 mph29%30.01 "Hg10 mi
7:15 pm61 °FClear.7 mph31%30.02 "Hg10 mi
6:55 pm61 °FClear.No wind34%30.02 "Hg10 mi
6:35 pm64 °FClear.3 mph28%30.01 "Hg10 mi
5:55 pm66 °FClear.5 mph24%30.01 "Hg10 mi
5:35 pm66 °FClear.7 mph24%30.01 "Hg10 mi
5:15 pm66 °FClear.6 mph24%30.02 "Hg10 mi
4:55 pm68 °FSunny.6 mph21%30.03 "Hg10 mi
3:52 pm68 °FOvercast.7 mph21%30.04 "Hg10 mi
2:58 pm70 °FOvercast.12 mph20%30.06 "Hg10 mi
1:49 pm72 °FPartly sunny.21 mph23%30.07 "Hg20 mi
12:49 pm70 °FScattered clouds.17 mph18%30.10 "Hg10 mi
11:53 am66 °FPassing clouds.17 mph22%30.14 "Hg10 mi
10:56 am64 °FSunny.18 mph22%30.18 "Hg10 mi
Weather by CustomWeather, © 2020

See weather overview

Advertising